Time,TemperatureF,DewpointF,PressureIn,WindDirection,WindDirectionDegrees,WindSpeedMPH,WindSpeedGustMPH,Humidity,HourlyPrecipIn,Conditions,Clouds,dailyrainin,SoftwareType,DateUTC
2013-04-10 00:00:00,37.2,34.3,29.99,SW,225,1.0,0.0,89,0.00,,CLR,-99.99,VWS V14.01,2013-04-10 04:00:00,
2013-04-10 00:05:00,37.2,34.3,29.99,SW,225,1.0,0.0,89,0.00,,CLR,-99.99,VWS V14.01,2013-04-10 04:05:00,
2013-04-10 00:06:00,37.2,34.3,29.98,SW,225,1.0,0.0,89,0.00,,CLR,-99.99,VWS V14.01,2013-04-10 04:06:00,
2013-04-10 00:10:00,37.2,34.3,29.99,SW,225,1.0,0.0,89,0.00,,CLR,-99.99,VWS V14.01,2013-04-10 04:10:00,
2013-04-10 00:15:00,37.2,34.3,29.98,SW,225,1.0,0.0,89,0.00,,CLR,-99.99,VWS V14.01,2013-04-10 04:15:00,
2013-04-10 00:20:00,37.2,34.3,29.98,SW,225,1.0,0.0,89,0.00,,CLR,-99.99,VWS V14.01,2013-04-10 04:20:00,
2013-04-10 00:25:00,37.2,34.3,29.99,SW,225,1.0,0.0,89,0.00,,CLR,-99.99,VWS V14.01,2013-04-10 04:25:00,
2013-04-10 00:30:00,37.2,34.3,29.98,SW,225,1.0,0.0,89,0.00,,CLR,-99.99,VWS V14.01,2013-04-10 04:30:00,
2013-04-10 00:35:00,37.2,34.3,29.99,SW,225,1.0,0.0,89,0.00,,CLR,-99.99,VWS V14.01,2013-04-10 04:35:00,
2013-04-10 00:40:00,37.2,34.3,29.99,SW,225,1.0,0.0,89,0.00,,CLR,-99.99,VWS V14.01,2013-04-10 04:40:00,
2013-04-10 00:45:00,37.2,34.3,29.99,SW,225,1.0,0.0,89,0.00,,CLR,-99.99,VWS V14.01,2013-04-10 04:45:00,
2013-04-10 00:50:00,37.2,34.3,30.00,SW,225,1.0,0.0,89,0.00,,CLR,-99.99,VWS V14.01,2013-04-10 04:50:00,
2013-04-10 00:55:00,37.4,34.5,30.00,SW,225,1.0,0.0,89,0.00,,CLR,-99.99,VWS V14.01,2013-04-10 04:55:00,
2013-04-10 01:00:00,37.4,34.5,30.00,SW,225,1.0,0.0,89,0.00,,CLR,-99.99,VWS V14.01,2013-04-10 05:00:00,
2013-04-10 01:05:00,37.4,34.7,30.00,SW,225,1.0,0.0,90,0.00,,CLR,-99.99,VWS V14.01,2013-04-10 05:05:00,
2013-04-10 01:10:00,37.4,34.7,30.00,SW,225,1.0,0.0,90,0.00,,CLR,-99.99,VWS V14.01,2013-04-10 05:10:00,
2013-04-10 01:15:00,37.4,34.7,30.00,SW,225,1.0,0.0,90,0.00,,CLR,-99.99,VWS V14.01,2013-04-10 05:15:00,
2013-04-10 01:21:00,37.2,34.5,30.01,SW,225,1.0,0.0,90,0.00,,CLR,-99.99,VWS V14.01,2013-04-10 05:21:00,
2013-04-10 01:27:00,37.2,34.5,30.00,SW,225,1.0,0.0,90,0.00,,CLR,-99.99,VWS V14.01,2013-04-10 05:27:00,
2013-04-10 01:32:00,37.2,34.5,30.00,SW,225,1.0,0.0,90,0.00,,CLR,-99.99,VWS V14.01,2013-04-10 05:32:00,
2013-04-10 01:37:00,37.0,34.3,30.00,SW,225,1.0,0.0,90,0.00,,CLR,-99.99,VWS V14.01,2013-04-10 05:37:00,
2013-04-10 01:43:00,36.8,33.9,29.99,SW,225,1.0,0.0,89,0.00,,CLR,-99.99,VWS V14.01,2013-04-10 05:43:00,
2013-04-10 01:48:00,36.6,33.7,29.99,SW,225,1.0,0.0,89,0.00,,CLR,-99.99,VWS V14.01,2013-04-10 05:48:00,
2013-04-10 01:53:00,36.3,33.4,29.99,SW,225,1.0,0.0,89,0.00,,CLR,-99.99,VWS V14.01,2013-04-10 05:53:00,
2013-04-10 01:58:00,36.3,33.4,30.00,SW,225,1.0,0.0,89,0.00,,CLR,-99.99,VWS V14.01,2013-04-10 05:58:00,
2013-04-10 02:04:00,36.3,33.7,30.00,SW,225,1.0,0.0,90,0.00,,CLR,-99.99,VWS V14.01,2013-04-10 06:04:00,
2013-04-10 02:10:00,36.3,33.7,29.99,SW,225,1.0,0.0,90,0.00,,CLR,-99.99,VWS V14.01,2013-04-10 06:10:00,
2013-04-10 02:15:00,36.3,33.7,29.99,SW,225,1.0,0.0,90,0.00,,CLR,-99.99,VWS V14.01,2013-04-10 06:15:00,
2013-04-10 02:20:00,36.3,33.7,29.99,SW,225,1.0,0.0,90,0.00,,CLR,-99.99,VWS V14.01,2013-04-10 06:20:00,
2013-04-10 02:25:00,36.3,33.7,29.99,SW,225,1.0,0.0,90,0.00,,CLR,-99.99,VWS V14.01,2013-04-10 06:25:00,
2013-04-10 02:30:00,36.3,33.7,30.00,SW,225,1.0,0.0,90,0.00,,CLR,-99.99,VWS V14.01,2013-04-10 06:30:00,
2013-04-10 02:35:00,36.3,33.7,29.99,SW,225,1.0,0.0,90,0.00,,CLR,-99.99,VWS V14.01,2013-04-10 06:35:00,
2013-04-10 02:40:00,36.3,33.7,29.99,SW,225,1.0,0.0,90,0.00,,CLR,-99.99,VWS V14.01,2013-04-10 06:40:00,
2013-04-10 02:45:00,36.3,33.7,29.99,SW,225,1.0,0.0,90,0.00,,CLR,-99.99,VWS V14.01,2013-04-10 06:45:00,
2013-04-10 02:50:00,36.3,33.7,29.98,SW,225,1.0,0.0,90,0.00,,CLR,-99.99,VWS V14.01,2013-04-10 06:50:00,
2013-04-10 02:55:00,36.1,33.5,29.98,SW,225,1.0,0.0,90,0.00,,CLR,-99.99,VWS V14.01,2013-04-10 06:55:00,
2013-04-10 03:00:00,36.1,33.5,29.98,SW,225,1.0,0.0,90,0.00,,CLR,-99.99,VWS V14.01,2013-04-10 07:00:00,
2013-04-10 03:05:00,36.1,33.5,29.98,SW,225,1.0,0.0,90,0.00,,CLR,-99.99,VWS V14.01,2013-04-10 07:05:00,
2013-04-10 03:11:00,36.1,33.5,29.98,SW,225,1.0,0.0,90,0.00,,CLR,-99.99,VWS V14.01,2013-04-10 07:11:00,
2013-04-10 03:16:00,36.1,33.5,29.97,SW,225,1.0,0.0,90,0.00,,CLR,-99.99,VWS V14.01,2013-04-10 07:16:00,
2013-04-10 03:21:00,36.1,33.5,29.97,SW,225,1.0,0.0,90,0.00,,CLR,-99.99,VWS V14.01,2013-04-10 07:21:00,
2013-04-10 03:26:00,36.1,33.5,29.97,SW,225,1.0,0.0,90,0.00,,CLR,-99.99,VWS V14.01,2013-04-10 07:26:00,
2013-04-10 03:31:00,36.1,33.5,29.97,SW,225,1.0,0.0,90,0.00,,CLR,-99.99,VWS V14.01,2013-04-10 07:31:00,
2013-04-10 03:36:00,36.1,33.5,29.97,SW,225,1.0,0.0,90,0.00,,CLR,-99.99,VWS V14.01,2013-04-10 07:36:00,
2013-04-10 03:42:00,36.1,33.5,29.98,SW,225,1.0,0.0,90,0.00,,CLR,-99.99,VWS V14.01,2013-04-10 07:42:00,
2013-04-10 03:47:00,36.1,33.5,29.98,SW,225,1.0,0.0,90,0.00,,CLR,-99.99,VWS V14.01,2013-04-10 07:47:00,
2013-04-10 03:52:00,36.1,33.5,29.98,SW,225,1.0,0.0,90,0.00,,CLR,-99.99,VWS V14.01,2013-04-10 07:52:00,
2013-04-10 03:57:00,36.1,33.5,29.98,SW,225,1.0,0.0,90,0.00,,CLR,-99.99,VWS V14.01,2013-04-10 07:57:00,
2013-04-10 04:02:00,36.1,33.5,29.98,SW,225,1.0,0.0,90,0.00,,CLR,-99.99,VWS V14.01,2013-04-10 08:02:00,
2013-04-10 04:08:00,36.1,33.5,29.99,SW,225,1.0,0.0,90,0.00,,CLR,-99.99,VWS V14.01,2013-04-10 08:08:00,
2013-04-10 04:13:00,36.3,33.7,29.99,SW,225,1.0,0.0,90,0.00,,CLR,-99.99,VWS V14.01,2013-04-10 08:13:00,
2013-04-10 04:19:00,36.3,33.7,29.99,SW,225,1.0,0.0,90,0.00,,CLR,-99.99,VWS V14.01,2013-04-10 08:19:00,
2013-04-10 04:24:00,36.3,33.7,29.99,SW,225,1.0,0.0,90,0.00,,CLR,-99.99,VWS V14.01,2013-04-10 08:24:00,
2013-04-10 04:30:00,36.3,33.7,29.99,SW,225,1.0,0.0,90,0.00,,CLR,-99.99,VWS V14.01,2013-04-10 08:30:00,
2013-04-10 04:35:00,36.3,33.7,29.99,SW,225,1.0,0.0,90,0.00,,CLR,-99.99,VWS V14.01,2013-04-10 08:35:00,
2013-04-10 04:40:00,36.3,33.7,29.98,SW,225,1.0,0.0,90,0.00,,CLR,-99.99,VWS V14.01,2013-04-10 08:40:00,
2013-04-10 04:45:00,36.1,33.5,29.98,SW,225,1.0,0.0,90,0.00,,CLR,-99.99,VWS V14.01,2013-04-10 08:45:00,
2013-04-10 04:50:00,36.1,33.5,29.98,SW,225,1.0,0.0,90,0.00,,CLR,-99.99,VWS V14.01,2013-04-10 08:50:00,
2013-04-10 04:56:00,36.1,33.5,29.98,SW,225,1.0,0.0,90,0.00,,CLR,-99.99,VWS V14.01,2013-04-10 08:56:00,
2013-04-10 05:01:00,36.1,33.5,29.98,SW,225,1.0,0.0,90,0.00,,CLR,-99.99,VWS V14.01,2013-04-10 09:01:00,
2013-04-10 05:07:00,36.1,33.5,29.97,SW,225,1.0,0.0,90,0.00,,CLR,-99.99,VWS V14.01,2013-04-10 09:07:00,
2013-04-10 05:13:00,35.9,33.3,29.97,SW,225,1.0,0.0,90,0.00,,CLR,-99.99,VWS V14.01,2013-04-10 09:13:00,
2013-04-10 05:18:00,35.9,33.5,29.97,SW,225,1.0,0.0,91,0.00,,CLR,-99.99,VWS V14.01,2013-04-10 09:18:00,
2013-04-10 05:23:00,35.9,33.5,29.98,SW,225,1.0,0.0,91,0.00,,CLR,-99.99,VWS V14.01,2013-04-10 09:23:00,
2013-04-10 05:28:00,35.9,33.5,29.97,SW,225,1.0,0.0,91,0.00,,CLR,-99.99,VWS V14.01,2013-04-10 09:28:00,
2013-04-10 05:33:00,36.1,33.7,29.97,SW,225,1.0,0.0,91,0.00,,CLR,-99.99,VWS V14.01,2013-04-10 09:33:00,
2013-04-10 05:38:00,36.1,33.7,29.98,SW,225,1.0,0.0,91,0.00,,CLR,-99.99,VWS V14.01,2013-04-10 09:38:00,
2013-04-10 05:44:00,36.3,33.9,29.98,SW,225,1.0,0.0,91,0.00,,CLR,-99.99,VWS V14.01,2013-04-10 09:44:00,
2013-04-10 05:49:00,36.1,33.7,29.97,SW,225,1.0,0.0,91,0.00,,CLR,-99.99,VWS V14.01,2013-04-10 09:49:00,
2013-04-10 05:54:00,36.1,33.7,29.98,SW,225,1.0,0.0,91,0.00,,CLR,-99.99,VWS V14.01,2013-04-10 09:54:00,
2013-04-10 06:00:00,36.1,33.7,29.98,SW,225,1.0,0.0,91,0.00,,CLR,-99.99,VWS V14.01,2013-04-10 10:00:00,
2013-04-10 06:05:00,36.3,33.9,29.98,SW,225,1.0,0.0,91,0.00,,CLR,-99.99,VWS V14.01,2013-04-10 10:05:00,
2013-04-10 06:11:00,36.3,33.9,29.99,SW,225,1.0,0.0,91,0.00,,CLR,-99.99,VWS V14.01,2013-04-10 10:11:00,
2013-04-10 06:16:00,36.3,33.9,29.99,SW,225,1.0,0.0,91,0.00,,CLR,-99.99,VWS V14.01,2013-04-10 10:16:00,
2013-04-10 06:21:00,36.5,34.1,29.99,SW,225,1.0,0.0,91,0.00,,CLR,-99.99,VWS V14.01,2013-04-10 10:21:00,
2013-04-10 06:27:00,36.6,34.2,29.99,SW,225,1.0,0.0,91,0.00,,CLR,-99.99,VWS V14.01,2013-04-10 10:27:00,
2013-04-10 06:33:00,36.5,34.1,30.00,SW,225,1.0,0.0,91,0.00,,CLR,-99.99,VWS V14.01,2013-04-10 10:33:00,
2013-04-10 06:39:00,36.5,34.1,30.00,SW,225,1.0,0.0,91,0.00,,CLR,-99.99,VWS V14.01,2013-04-10 10:39:00,
2013-04-10 06:44:00,37.0,34.9,30.00,SW,225,1.0,0.0,92,0.00,,CLR,-99.99,VWS V14.01,2013-04-10 10:44:00,
2013-04-10 06:49:00,37.2,35.1,30.00,SW,225,1.0,0.0,92,0.00,,CLR,-99.99,VWS V14.01,2013-04-10 10:49:00,
2013-04-10 06:55:00,37.2,35.1,30.00,SW,225,1.0,0.0,92,0.00,,CLR,-99.99,VWS V14.01,2013-04-10 10:55:00,
2013-04-10 07:00:00,37.4,35.3,30.00,SW,225,1.0,0.0,92,0.00,,CLR,-99.99,VWS V14.01,2013-04-10 11:00:00,
2013-04-10 07:05:00,37.7,35.6,30.00,SW,225,1.0,0.0,92,0.00,,CLR,-99.99,VWS V14.01,2013-04-10 11:05:00,
2013-04-10 07:10:00,37.5,35.4,29.99,SW,225,1.0,0.0,92,0.00,,CLR,-99.99,VWS V14.01,2013-04-10 11:10:00,
2013-04-10 07:15:00,37.5,35.4,30.00,SW,225,1.0,0.0,92,0.00,,CLR,-99.99,VWS V14.01,2013-04-10 11:15:00,
2013-04-10 07:20:00,37.7,35.6,30.00,SW,225,1.0,0.0,92,0.00,,CLR,-99.99,VWS V14.01,2013-04-10 11:20:00,
2013-04-10 07:25:00,37.9,35.8,30.00,SW,225,1.0,0.0,92,0.00,,CLR,-99.99,VWS V14.01,2013-04-10 11:25:00,
2013-04-10 07:30:00,38.3,36.2,30.00,SW,225,1.0,0.0,92,0.00,,CLR,-99.99,VWS V14.01,2013-04-10 11:30:00,
2013-04-10 07:35:00,38.3,36.2,30.00,SW,225,1.0,0.0,92,0.00,,CLR,-99.99,VWS V14.01,2013-04-10 11:35:00,
2013-04-10 07:40:00,38.4,36.3,30.00,SW,225,1.0,0.0,92,0.00,,CLR,-99.99,VWS V14.01,2013-04-10 11:40:00,
2013-04-10 07:45:00,38.4,36.3,30.00,SW,225,1.0,0.0,92,0.00,,CLR,-99.99,VWS V14.01,2013-04-10 11:45:00,
2013-04-10 07:50:00,38.8,36.7,30.00,SW,225,1.0,0.0,92,0.00,,CLR,-99.99,VWS V14.01,2013-04-10 11:50:00,
2013-04-10 07:57:00,39.0,37.2,30.01,SW,225,1.0,0.0,93,0.00,,CLR,-99.99,VWS V14.01,2013-04-10 11:57:00,
2013-04-10 08:02:00,38.8,36.7,30.00,SW,225,1.0,0.0,92,0.00,,CLR,-99.99,VWS V14.01,2013-04-10 12:02:00,
2013-04-10 08:07:00,38.4,36.3,30.00,SW,225,1.0,0.0,92,0.00,,CLR,-99.99,VWS V14.01,2013-04-10 12:07:00,
2013-04-10 08:13:00,38.3,36.2,30.01,SW,225,1.0,0.0,92,0.00,,CLR,-99.99,VWS V14.01,2013-04-10 12:13:00,
2013-04-10 08:18:00,38.1,36.0,30.01,SW,225,1.0,0.0,92,0.00,,CLR,-99.99,VWS V14.01,2013-04-10 12:18:00,
2013-04-10 08:24:00,38.1,36.0,30.01,SW,225,1.0,0.0,92,0.00,,CLR,-99.99,VWS V14.01,2013-04-10 12:24:00,
2013-04-10 08:29:00,38.3,36.5,30.01,SW,225,1.0,0.0,93,0.00,,CLR,-99.99,VWS V14.01,2013-04-10 12:29:00,
2013-04-10 08:35:00,38.4,36.6,30.00,SW,225,1.0,0.0,93,0.00,,CLR,-99.99,VWS V14.01,2013-04-10 12:35:00,
2013-04-10 08:40:00,38.4,36.6,30.00,SW,225,1.0,0.0,93,0.00,,CLR,-99.99,VWS V14.01,2013-04-10 12:40:00,
2013-04-10 08:45:00,38.4,36.6,30.01,SW,225,1.0,0.0,93,0.00,,CLR,-99.99,VWS V14.01,2013-04-10 12:45:00,
2013-04-10 08:50:00,38.8,37.0,30.01,SW,225,1.0,0.0,93,0.00,,CLR,-99.99,VWS V14.01,2013-04-10 12:50:00,
2013-04-10 08:55:00,38.8,37.0,30.00,SW,225,1.0,0.0,93,0.00,,CLR,-99.99,VWS V14.01,2013-04-10 12:55:00,
2013-04-10 09:00:00,38.8,37.0,30.00,SW,225,1.0,0.0,93,0.00,,CLR,-99.99,VWS V14.01,2013-04-10 13:00:00,
2013-04-10 09:05:00,39.0,37.2,30.00,SW,225,1.0,0.0,93,0.00,,CLR,-99.99,VWS V14.01,2013-04-10 13:05:00,
2013-04-10 09:10:00,39.3,37.5,30.00,SW,225,1.0,0.0,93,0.00,,CLR,-99.99,VWS V14.01,2013-04-10 13:10:00,
2013-04-10 09:15:00,39.3,37.5,30.00,SW,225,1.0,0.0,93,0.00,,CLR,-99.99,VWS V14.01,2013-04-10 13:15:00,
2013-04-10 09:20:00,39.5,37.7,30.01,NW,315,1.0,0.0,93,0.00,,CLR,-99.99,VWS V14.01,2013-04-10 13:20:00,
2013-04-10 09:25:00,39.7,37.8,30.01,NW,315,1.0,0.0,93,0.00,,CLR,-99.99,VWS V14.01,2013-04-10 13:25:00,
2013-04-10 09:30:00,39.9,38.0,30.01,NW,315,1.0,0.0,93,0.00,,CLR,-99.99,VWS V14.01,2013-04-10 13:30:00,
2013-04-10 09:36:00,40.1,38.2,30.02,NW,315,1.0,0.0,93,0.00,,CLR,-99.99,VWS V14.01,2013-04-10 13:36:00,
2013-04-10 09:42:00,40.1,38.2,30.02,NW,315,1.0,0.0,93,0.00,,CLR,-99.99,VWS V14.01,2013-04-10 13:42:00,
2013-04-10 09:48:00,40.2,38.3,30.02,NW,315,1.0,0.0,93,0.00,,CLR,-99.99,VWS V14.01,2013-04-10 13:48:00,
2013-04-10 09:53:00,40.2,38.3,30.02,NW,315,1.0,0.0,93,0.00,,CLR,-99.99,VWS V14.01,2013-04-10 13:53:00,
2013-04-10 09:59:00,40.2,38.1,30.03,NW,315,1.0,0.0,92,0.00,,CLR,-99.99,VWS V14.01,2013-04-10 13:59:00,
2013-04-10 10:04:00,40.8,38.7,30.03,NNW,338,1.0,0.0,92,0.00,,CLR,-99.99,VWS V14.01,2013-04-10 14:04:00,
2013-04-10 10:10:00,40.8,38.7,30.03,NNW,338,1.0,0.0,92,0.00,,CLR,-99.99,VWS V14.01,2013-04-10 14:10:00,
2013-04-10 10:15:00,40.8,38.7,30.03,NNW,338,1.0,0.0,92,0.00,,CLR,-99.99,VWS V14.01,2013-04-10 14:15:00,
2013-04-10 10:20:00,40.8,38.7,30.03,North,0,1.0,0.0,92,0.00,,CLR,-99.99,VWS V14.01,2013-04-10 14:20:00,
2013-04-10 10:25:00,40.8,38.7,30.02,North,0,1.0,0.0,92,0.00,,CLR,-99.99,VWS V14.01,2013-04-10 14:25:00,
2013-04-10 10:30:00,40.8,38.7,30.03,North,0,1.0,0.0,92,0.00,,CLR,-99.99,VWS V14.01,2013-04-10 14:30:00,
2013-04-10 10:35:00,40.8,38.4,30.03,NNE,22,1.0,0.0,91,0.00,,CLR,-99.99,VWS V14.01,2013-04-10 14:35:00,
2013-04-10 10:40:00,41.0,38.6,30.03,NNE,22,1.0,0.0,91,0.00,,CLR,-99.99,VWS V14.01,2013-04-10 14:40:00,
2013-04-10 10:45:00,41.1,38.7,30.03,NNE,22,1.0,0.0,91,0.00,,CLR,-99.99,VWS V14.01,2013-04-10 14:45:00,
2013-04-10 10:50:00,42.0,39.6,30.03,NNE,22,1.0,0.0,91,0.00,,CLR,-99.99,VWS V14.01,2013-04-10 14:50:00,
2013-04-10 10:55:00,42.4,39.7,30.03,NE,45,1.0,0.0,90,0.00,,CLR,-99.99,VWS V14.01,2013-04-10 14:55:00,
2013-04-10 11:00:00,41.7,39.0,30.02,NE,45,1.0,0.0,90,0.00,,CLR,-99.99,VWS V14.01,2013-04-10 15:00:00,
2013-04-10 11:05:00,41.1,38.4,30.03,NE,45,1.0,0.0,90,0.00,,CLR,-99.99,VWS V14.01,2013-04-10 15:05:00,
2013-04-10 11:10:00,40.8,38.1,30.03,NE,45,1.0,0.0,90,0.00,,CLR,-99.99,VWS V14.01,2013-04-10 15:10:00,
2013-04-10 11:15:00,40.2,37.8,30.03,NE,45,1.0,0.0,91,0.00,,CLR,-99.99,VWS V14.01,2013-04-10 15:15:00,
2013-04-10 11:20:00,40.1,37.7,30.02,NE,45,1.0,0.0,91,0.00,,CLR,-99.99,VWS V14.01,2013-04-10 15:20:00,
2013-04-10 11:25:00,40.2,37.8,30.02,NE,45,1.0,0.0,91,0.00,,CLR,-99.99,VWS V14.01,2013-04-10 15:25:00,
2013-04-10 11:30:00,40.2,37.8,30.03,NE,45,1.0,0.0,91,0.00,,CLR,-99.99,VWS V14.01,2013-04-10 15:30:00,
2013-04-10 11:35:00,40.4,38.0,30.02,NE,45,1.0,0.0,91,0.00,,CLR,-99.99,VWS V14.01,2013-04-10 15:35:00,
2013-04-10 11:40:00,40.6,38.2,30.03,NE,45,1.0,0.0,91,0.00,,CLR,-99.99,VWS V14.01,2013-04-10 15:40:00,
2013-04-10 11:46:00,41.0,38.6,30.02,NE,45,1.0,0.0,91,0.00,,CLR,-99.99,VWS V14.01,2013-04-10 15:46:00,
2013-04-10 11:51:00,40.8,38.4,30.02,ENE,68,1.0,0.0,91,0.00,,CLR,-99.99,VWS V14.01,2013-04-10 15:51:00,
2013-04-10 11:56:00,41.0,38.6,30.02,ENE,68,1.0,0.0,91,0.00,,CLR,-99.99,VWS V14.01,2013-04-10 15:56:00,
2013-04-10 12:02:00,41.1,38.7,30.02,ENE,68,1.0,0.0,91,0.00,,CLR,-99.99,VWS V14.01,2013-04-10 16:02:00,
2013-04-10 12:07:00,41.1,38.7,30.02,ENE,68,1.0,0.0,91,0.00,,CLR,-99.99,VWS V14.01,2013-04-10 16:07:00,
2013-04-10 12:13:00,41.5,39.1,30.02,ENE,68,1.0,0.0,91,0.00,,CLR,-99.99,VWS V14.01,2013-04-10 16:13:00,
2013-04-10 12:18:00,41.9,39.5,30.02,ENE,68,1.0,0.0,91,0.00,,CLR,-99.99,VWS V14.01,2013-04-10 16:18:00,
2013-04-10 12:24:00,42.4,39.7,30.02,ENE,68,1.0,0.0,90,0.00,,CLR,-99.99,VWS V14.01,2013-04-10 16:24:00,
2013-04-10 12:29:00,42.6,39.9,30.02,ENE,68,1.0,0.0,90,0.00,,CLR,-99.99,VWS V14.01,2013-04-10 16:29:00,
2013-04-10 12:34:00,43.5,40.5,30.02,ENE,68,1.0,0.0,89,0.00,,CLR,-99.99,VWS V14.01,2013-04-10 16:34:00,
2013-04-10 12:39:00,44.4,41.4,30.02,ENE,68,1.0,0.0,89,0.00,,CLR,-99.99,VWS V14.01,2013-04-10 16:39:00,
2013-04-10 12:44:00,45.1,41.8,30.02,ENE,68,1.0,0.0,88,0.00,,CLR,-99.99,VWS V14.01,2013-04-10 16:44:00,
2013-04-10 12:49:00,46.0,42.3,30.02,ENE,68,1.0,0.0,87,0.00,,CLR,-99.99,VWS V14.01,2013-04-10 16:49:00,
2013-04-10 12:55:00,45.1,40.2,30.02,NE,45,1.0,0.0,83,0.00,,CLR,-99.99,VWS V14.01,2013-04-10 16:55:00,
2013-04-10 13:00:00,44.6,40.1,30.01,NE,45,1.0,0.0,84,0.00,,CLR,-99.99,VWS V14.01,2013-04-10 17:00:00,
2013-04-10 13:06:00,45.1,40.2,30.01,NE,45,1.0,0.0,83,0.00,,CLR,-99.99,VWS V14.01,2013-04-10 17:06:00,
2013-04-10 13:11:00,45.1,39.9,30.01,NE,45,1.0,0.0,82,0.00,,CLR,-99.99,VWS V14.01,2013-04-10 17:11:00,
2013-04-10 13:16:00,45.5,40.3,30.01,NE,45,1.0,0.0,82,0.00,,CLR,-99.99,VWS V14.01,2013-04-10 17:16:00,
2013-04-10 13:22:00,45.5,40.0,30.01,NNE,22,1.0,0.0,81,0.00,,CLR,-99.99,VWS V14.01,2013-04-10 17:22:00,
2013-04-10 13:27:00,44.9,39.4,30.01,NNE,22,1.0,0.0,81,0.00,,CLR,-99.99,VWS V14.01,2013-04-10 17:27:00,
2013-04-10 13:33:00,45.1,39.6,30.01,NNE,22,1.0,0.0,81,0.00,,CLR,-99.99,VWS V14.01,2013-04-10 17:33:00,
2013-04-10 13:38:00,45.3,39.8,30.01,NNE,22,1.0,0.0,81,0.00,,CLR,-99.99,VWS V14.01,2013-04-10 17:38:00,
2013-04-10 13:44:00,45.6,39.8,30.02,NNE,22,1.0,0.0,80,0.00,,CLR,-99.99,VWS V14.01,2013-04-10 17:44:00,
2013-04-10 13:49:00,46.0,40.2,30.02,NNE,22,1.0,0.0,80,0.00,,CLR,-99.99,VWS V14.01,2013-04-10 17:49:00,
2013-04-10 13:54:00,46.0,39.9,30.02,NNE,22,1.0,0.0,79,0.00,,CLR,-99.99,VWS V14.01,2013-04-10 17:54:00,
2013-04-10 13:59:00,46.0,39.5,30.02,NNE,22,1.0,0.0,78,0.00,,CLR,-99.99,VWS V14.01,2013-04-10 17:59:00,
2013-04-10 14:04:00,46.0,39.5,30.02,NNE,22,1.0,0.0,78,0.00,,CLR,-99.99,VWS V14.01,2013-04-10 18:04:00,
2013-04-10 14:10:00,46.0,39.2,30.02,NNE,22,1.0,0.0,77,0.00,,CLR,-99.99,VWS V14.01,2013-04-10 18:10:00,
2013-04-10 14:15:00,46.2,39.4,30.02,NNE,22,1.0,0.0,77,0.00,,CLR,-99.99,VWS V14.01,2013-04-10 18:15:00,
2013-04-10 14:20:00,46.5,39.4,30.02,West,270,1.0,0.0,76,0.00,,CLR,-99.99,VWS V14.01,2013-04-10 18:20:00,
2013-04-10 14:25:00,46.4,39.6,30.02,West,270,1.0,0.0,77,0.00,,CLR,-99.99,VWS V14.01,2013-04-10 18:25:00,
2013-04-10 14:30:00,46.7,40.2,30.02,West,270,1.0,0.0,78,0.00,,CLR,-99.99,VWS V14.01,2013-04-10 18:30:00,
2013-04-10 14:35:00,46.7,39.9,30.02,WNW,292,1.0,0.0,77,0.00,,CLR,-99.99,VWS V14.01,2013-04-10 18:35:00,
2013-04-10 14:40:00,46.5,39.4,30.01,WNW,292,1.0,0.0,76,0.00,,CLR,-99.99,VWS V14.01,2013-04-10 18:40:00,
2013-04-10 14:46:00,46.9,39.7,30.00,WNW,292,1.0,0.0,76,0.00,,CLR,-99.99,VWS V14.01,2013-04-10 18:46:00,
2013-04-10 14:52:00,47.1,39.9,30.00,WNW,292,1.0,0.0,76,0.00,,CLR,-99.99,VWS V14.01,2013-04-10 18:52:00,
2013-04-10 14:57:00,47.1,39.9,30.01,WNW,292,1.0,0.0,76,0.00,,CLR,-99.99,VWS V14.01,2013-04-10 18:57:00,
2013-04-10 15:03:00,46.7,39.9,30.00,West,270,1.0,0.0,77,0.00,,CLR,-99.99,VWS V14.01,2013-04-10 19:03:00,
2013-04-10 15:08:00,46.2,39.4,30.00,West,270,1.0,0.0,77,0.00,,CLR,-99.99,VWS V14.01,2013-04-10 19:08:00,
2013-04-10 15:13:00,46.2,39.7,29.99,West,270,1.0,0.0,78,0.00,,CLR,-99.99,VWS V14.01,2013-04-10 19:13:00,
2013-04-10 15:19:00,46.0,39.5,29.99,West,270,1.0,0.0,78,0.00,,CLR,-99.99,VWS V14.01,2013-04-10 19:19:00,
2013-04-10 15:24:00,46.2,39.7,29.99,West,270,1.0,0.0,78,0.00,,CLR,-99.99,VWS V14.01,2013-04-10 19:24:00,
2013-04-10 15:30:00,46.2,39.7,29.99,West,270,1.0,0.0,78,0.00,,CLR,-99.99,VWS V14.01,2013-04-10 19:30:00,
2013-04-10 15:35:00,46.2,39.4,29.98,West,270,1.0,0.0,77,0.00,,CLR,-99.99,VWS V14.01,2013-04-10 19:35:00,
2013-04-10 15:41:00,46.2,39.7,29.98,West,270,1.0,0.0,78,0.00,,CLR,-99.99,VWS V14.01,2013-04-10 19:41:00,
2013-04-10 15:46:00,46.2,39.4,29.98,West,270,1.0,0.0,77,0.00,,CLR,-99.99,VWS V14.01,2013-04-10 19:46:00,
2013-04-10 15:52:00,46.2,39.4,29.97,West,270,1.0,0.0,77,0.00,,CLR,-99.99,VWS V14.01,2013-04-10 19:52:00,
2013-04-10 15:58:00,46.5,39.7,29.98,West,270,1.0,0.0,77,0.00,,CLR,-99.99,VWS V14.01,2013-04-10 19:58:00,
2013-04-10 16:03:00,46.5,38.3,29.98,North,0,1.0,0.0,73,0.00,,CLR,-99.99,VWS V14.01,2013-04-10 20:03:00,
2013-04-10 16:08:00,46.2,37.7,29.97,North,0,1.0,0.0,72,0.00,,CLR,-99.99,VWS V14.01,2013-04-10 20:08:00,
2013-04-10 16:13:00,46.2,38.0,29.97,North,0,1.0,0.0,73,0.00,,CLR,-99.99,VWS V14.01,2013-04-10 20:13:00,
2013-04-10 16:18:00,46.2,37.7,29.97,North,0,1.0,0.0,72,0.00,,CLR,-99.99,VWS V14.01,2013-04-10 20:18:00,
2013-04-10 16:23:00,46.2,38.4,29.98,WNW,292,1.0,0.0,74,0.00,,CLR,-99.99,VWS V14.01,2013-04-10 20:23:00,
2013-04-10 16:29:00,46.5,39.4,29.98,West,270,1.0,0.0,76,0.00,,CLR,-99.99,VWS V14.01,2013-04-10 20:29:00,
2013-04-10 16:34:00,46.2,38.4,29.97,NW,315,1.0,0.0,74,0.00,,CLR,-99.99,VWS V14.01,2013-04-10 20:34:00,
2013-04-10 16:40:00,45.8,38.0,29.97,NW,315,1.0,0.0,74,0.00,,CLR,-99.99,VWS V14.01,2013-04-10 20:40:00,
2013-04-10 16:45:00,46.0,37.8,29.97,NW,315,1.0,0.0,73,0.00,,CLR,-99.99,VWS V14.01,2013-04-10 20:45:00,
2013-04-10 16:50:00,46.0,38.5,29.98,NW,315,1.0,0.0,75,0.00,,CLR,-99.99,VWS V14.01,2013-04-10 20:50:00,
2013-04-10 16:55:00,46.0,37.8,29.98,NW,315,1.0,0.0,73,0.00,,CLR,-99.99,VWS V14.01,2013-04-10 20:55:00,
2013-04-10 17:00:00,45.6,37.1,29.98,NW,315,1.0,0.0,72,0.00,,CLR,-99.99,VWS V14.01,2013-04-10 21:00:00,
2013-04-10 17:07:00,45.5,37.4,29.98,NW,315,1.0,0.0,73,0.00,,CLR,-99.99,VWS V14.01,2013-04-10 21:07:00,
2013-04-10 17:12:00,45.3,36.8,29.98,NNW,338,1.0,0.0,72,0.00,,CLR,-99.99,VWS V14.01,2013-04-10 21:12:00,
2013-04-10 17:18:00,45.1,36.6,29.99,NNW,338,1.0,0.0,72,0.00,,CLR,-99.99,VWS V14.01,2013-04-10 21:18:00,
2013-04-10 17:23:00,45.1,36.6,29.99,NNW,338,1.0,0.0,72,0.00,,CLR,-99.99,VWS V14.01,2013-04-10 21:23:00,
2013-04-10 17:28:00,45.1,36.6,29.99,NNW,338,1.0,0.0,72,0.00,,CLR,-99.99,VWS V14.01,2013-04-10 21:28:00,
2013-04-10 17:34:00,44.9,36.4,29.98,NNW,338,1.0,0.0,72,0.00,,CLR,-99.99,VWS V14.01,2013-04-10 21:34:00,
2013-04-10 17:40:00,44.9,36.4,29.97,NNW,338,1.0,0.0,72,0.00,,CLR,-99.99,VWS V14.01,2013-04-10 21:40:00,
2013-04-10 17:45:00,44.7,36.2,29.97,NNW,338,1.0,0.0,72,0.00,,CLR,-99.99,VWS V14.01,2013-04-10 21:45:00,
2013-04-10 17:50:00,44.7,36.2,29.97,NNW,338,1.0,0.0,72,0.00,,CLR,-99.99,VWS V14.01,2013-04-10 21:50:00,
2013-04-10 17:55:00,44.6,36.2,29.96,NNW,338,1.0,0.0,72,0.00,,CLR,-99.99,VWS V14.01,2013-04-10 21:55:00,
2013-04-10 18:00:00,44.6,36.2,29.96,NNW,338,1.0,0.0,72,0.00,,CLR,-99.99,VWS V14.01,2013-04-10 22:00:00,
2013-04-10 18:05:00,44.4,36.3,29.96,NNW,338,1.0,0.0,73,0.00,,CLR,-99.99,VWS V14.01,2013-04-10 22:05:00,
2013-04-10 18:10:00,44.4,36.0,29.96,NNW,338,1.0,0.0,72,0.00,,CLR,-99.99,VWS V14.01,2013-04-10 22:10:00,
2013-04-10 18:15:00,44.0,35.6,29.96,NNW,338,1.0,0.0,72,0.00,,CLR,-99.99,VWS V14.01,2013-04-10 22:15:00,
2013-04-10 18:21:00,43.7,35.3,29.96,NNW,338,1.0,0.0,72,0.00,,CLR,-99.99,VWS V14.01,2013-04-10 22:21:00,
2013-04-10 18:26:00,43.5,35.4,29.95,NNW,338,1.0,0.0,73,0.00,,CLR,-99.99,VWS V14.01,2013-04-10 22:26:00,
2013-04-10 18:31:00,43.5,35.8,29.96,NNW,338,1.0,0.0,74,0.00,,CLR,-99.99,VWS V14.01,2013-04-10 22:31:00,
2013-04-10 18:36:00,43.3,35.6,29.96,NNW,338,1.0,0.0,74,0.00,,CLR,-99.99,VWS V14.01,2013-04-10 22:36:00,
2013-04-10 18:41:00,43.1,35.4,29.96,NNW,338,1.0,0.0,74,0.00,,CLR,-99.99,VWS V14.01,2013-04-10 22:41:00,
2013-04-10 18:46:00,42.9,35.2,29.96,NNW,338,1.0,0.0,74,0.00,,CLR,-99.99,VWS V14.01,2013-04-10 22:46:00,
2013-04-10 18:52:00,42.6,34.9,29.96,NNW,338,1.0,0.0,74,0.00,,CLR,-99.99,VWS V14.01,2013-04-10 22:52:00,
2013-04-10 18:57:00,42.6,34.9,29.96,NNW,338,1.0,0.0,74,0.00,,CLR,-99.99,VWS V14.01,2013-04-10 22:57:00,
2013-04-10 19:02:00,42.4,34.4,29.96,NNW,338,1.0,0.0,73,0.00,,CLR,-99.99,VWS V14.01,2013-04-10 23:02:00,
2013-04-10 19:08:00,42.4,34.7,29.96,NNW,338,1.0,0.0,74,0.00,,CLR,-99.99,VWS V14.01,2013-04-10 23:08:00,
2013-04-10 19:13:00,42.4,34.7,29.96,NNW,338,1.0,0.0,74,0.00,,CLR,-99.99,VWS V14.01,2013-04-10 23:13:00,
2013-04-10 19:19:00,42.0,34.3,29.96,NNW,338,1.0,0.0,74,0.00,,CLR,-99.99,VWS V14.01,2013-04-10 23:19:00,
2013-04-10 19:25:00,42.0,34.3,29.97,NNW,338,1.0,0.0,74,0.00,,CLR,-99.99,VWS V14.01,2013-04-10 23:25:00,
2013-04-10 19:30:00,41.7,34.0,29.97,NNW,338,1.0,0.0,74,0.00,,CLR,-99.99,VWS V14.01,2013-04-10 23:30:00,
2013-04-10 19:35:00,41.7,34.0,29.96,NNW,338,1.0,0.0,74,0.00,,CLR,-99.99,VWS V14.01,2013-04-10 23:35:00,
2013-04-10 19:40:00,41.5,34.2,29.96,NNW,338,1.0,0.0,75,0.00,,CLR,-99.99,VWS V14.01,2013-04-10 23:40:00,
2013-04-10 19:45:00,41.5,34.2,29.96,NNW,338,1.0,0.0,75,0.00,,CLR,-99.99,VWS V14.01,2013-04-10 23:45:00,
2013-04-10 19:50:00,41.3,34.3,29.96,NNW,338,1.0,0.0,76,0.00,,CLR,-99.99,VWS V14.01,2013-04-10 23:50:00,
2013-04-10 19:55:00,41.1,34.8,29.97,NNW,338,1.0,0.0,78,0.00,,CLR,-99.99,VWS V14.01,2013-04-10 23:55:00,
2013-04-10 20:01:00,40.8,34.5,29.97,NNW,338,1.0,0.0,78,0.00,,CLR,-99.99,VWS V14.01,2013-04-11 00:01:00,
2013-04-10 20:07:00,40.8,34.2,29.96,NNW,338,1.0,0.0,77,0.00,,CLR,-99.99,VWS V14.01,2013-04-11 00:07:00,
2013-04-10 20:13:00,40.6,34.3,29.96,NNW,338,1.0,0.0,78,0.00,,CLR,-99.99,VWS V14.01,2013-04-11 00:13:00,
2013-04-10 20:18:00,40.2,34.2,29.96,NNW,338,1.0,0.0,79,0.00,,CLR,-99.99,VWS V14.01,2013-04-11 00:18:00,
2013-04-10 20:23:00,40.6,35.2,29.96,NNW,338,1.0,0.0,81,0.00,,CLR,-99.99,VWS V14.01,2013-04-11 00:23:00,
2013-04-10 20:28:00,40.4,35.0,29.96,NNW,338,1.0,0.0,81,0.00,,CLR,-99.99,VWS V14.01,2013-04-11 00:28:00,
2013-04-10 20:34:00,40.1,34.8,29.97,NNW,338,1.0,0.0,81,0.00,,CLR,-99.99,VWS V14.01,2013-04-11 00:34:00,
2013-04-10 20:39:00,39.7,34.4,29.97,NNW,338,1.0,0.0,81,0.00,,CLR,-99.99,VWS V14.01,2013-04-11 00:39:00,
2013-04-10 20:45:00,39.3,34.3,29.99,NNW,338,1.0,0.0,82,0.00,,CLR,-99.99,VWS V14.01,2013-04-11 00:45:00,
2013-04-10 20:50:00,39.5,35.1,29.99,NNW,338,1.0,0.0,84,0.00,,CLR,-99.99,VWS V14.01,2013-04-11 00:50:00,
2013-04-10 20:55:00,39.7,35.3,29.99,NNW,338,1.0,0.0,84,0.00,,CLR,-99.99,VWS V14.01,2013-04-11 00:55:00,
2013-04-10 21:00:00,39.9,35.5,29.99,NNW,338,1.0,0.0,84,0.00,,CLR,-99.99,VWS V14.01,2013-04-11 01:00:00,
2013-04-10 21:06:00,39.7,35.3,29.99,NNW,338,1.0,0.0,84,0.00,,CLR,-99.99,VWS V14.01,2013-04-11 01:06:00,
2013-04-10 21:11:00,39.7,35.3,30.00,NNW,338,1.0,0.0,84,0.00,,CLR,-99.99,VWS V14.01,2013-04-11 01:11:00,
2013-04-10 21:17:00,39.3,34.6,30.00,NNW,338,1.0,0.0,83,0.00,,CLR,-99.99,VWS V14.01,2013-04-11 01:17:00,
2013-04-10 21:22:00,39.0,34.6,30.00,NNW,338,1.0,0.0,84,0.00,,CLR,-99.99,VWS V14.01,2013-04-11 01:22:00,
2013-04-10 21:28:00,38.8,34.1,30.00,NNW,338,1.0,0.0,83,0.00,,CLR,-99.99,VWS V14.01,2013-04-11 01:28:00,
2013-04-10 21:33:00,38.4,34.0,29.99,NNW,338,1.0,0.0,84,0.00,,CLR,-99.99,VWS V14.01,2013-04-11 01:33:00,
2013-04-10 21:38:00,38.3,33.9,30.00,NNW,338,1.0,0.0,84,0.00,,CLR,-99.99,VWS V14.01,2013-04-11 01:38:00,
2013-04-10 21:43:00,38.1,33.7,30.00,NNW,338,1.0,0.0,84,0.00,,CLR,-99.99,VWS V14.01,2013-04-11 01:43:00,
2013-04-10 21:48:00,37.9,33.5,29.99,NNW,338,1.0,0.0,84,0.00,,CLR,-99.99,VWS V14.01,2013-04-11 01:48:00,
2013-04-10 21:53:00,37.9,33.5,29.99,NNW,338,1.0,0.0,84,0.00,,CLR,-99.99,VWS V14.01,2013-04-11 01:53:00,
2013-04-10 21:58:00,37.7,33.6,29.98,NNW,338,1.0,0.0,85,0.00,,CLR,-99.99,VWS V14.01,2013-04-11 01:58:00,
2013-04-10 22:03:00,37.7,33.9,29.99,NNW,338,1.0,0.0,86,0.00,,CLR,-99.99,VWS V14.01,2013-04-11 02:03:00,
2013-04-10 22:08:00,37.9,34.1,29.98,NNW,338,1.0,0.0,86,0.00,,CLR,-99.99,VWS V14.01,2013-04-11 02:08:00,
2013-04-10 22:13:00,37.7,33.9,29.97,NNW,338,1.0,0.0,86,0.00,,CLR,-99.99,VWS V14.01,2013-04-11 02:13:00,
2013-04-10 22:18:00,37.5,33.4,29.97,NNW,338,1.0,0.0,85,0.00,,CLR,-99.99,VWS V14.01,2013-04-11 02:18:00,
2013-04-10 22:24:00,37.2,33.1,29.96,NNW,338,1.0,0.0,85,0.00,,CLR,-99.99,VWS V14.01,2013-04-11 02:24:00,
2013-04-10 22:30:00,37.2,33.1,29.98,NW,315,1.0,0.0,85,0.00,,CLR,-99.99,VWS V14.01,2013-04-11 02:30:00,
2013-04-10 22:35:00,37.0,32.9,29.97,NW,315,1.0,0.0,85,0.00,,CLR,-99.99,VWS V14.01,2013-04-11 02:35:00,
2013-04-10 22:40:00,36.5,32.7,29.97,NW,315,1.0,0.0,86,0.00,,CLR,-99.99,VWS V14.01,2013-04-11 02:40:00,
2013-04-10 22:45:00,36.3,32.5,29.97,NW,315,1.0,0.0,86,0.00,,CLR,-99.99,VWS V14.01,2013-04-11 02:45:00,
2013-04-10 22:50:00,36.3,32.5,29.97,NW,315,1.0,0.0,86,0.00,,CLR,-99.99,VWS V14.01,2013-04-11 02:50:00,
2013-04-10 22:55:00,36.3,32.8,29.98,NW,315,1.0,0.0,87,0.00,,CLR,-99.99,VWS V14.01,2013-04-11 02:55:00,
2013-04-10 23:00:00,36.3,32.8,29.98,WNW,292,1.0,0.0,87,0.00,,CLR,-99.99,VWS V14.01,2013-04-11 03:00:00,
2013-04-10 23:05:00,36.1,32.6,29.98,WNW,292,1.0,0.0,87,0.00,,CLR,-99.99,VWS V14.01,2013-04-11 03:05:00,
2013-04-10 23:10:00,35.9,32.4,29.98,WNW,292,1.0,0.0,87,0.00,,CLR,-99.99,VWS V14.01,2013-04-11 03:10:00,
2013-04-10 23:16:00,35.7,32.2,29.98,WNW,292,1.0,0.0,87,0.00,,CLR,-99.99,VWS V14.01,2013-04-11 03:16:00,
2013-04-10 23:21:00,35.7,32.2,29.98,WNW,292,1.0,0.0,87,0.00,,CLR,-99.99,VWS V14.01,2013-04-11 03:21:00,
2013-04-10 23:26:00,35.7,32.2,29.97,WNW,292,1.0,0.0,87,0.00,,CLR,-99.99,VWS V14.01,2013-04-11 03:26:00,
2013-04-10 23:31:00,35.7,32.2,29.98,WNW,292,1.0,0.0,87,0.00,,CLR,-99.99,VWS V14.01,2013-04-11 03:31:00,
2013-04-10 23:37:00,35.7,32.2,29.98,WNW,292,1.0,0.0,87,0.00,,CLR,-99.99,VWS V14.01,2013-04-11 03:37:00,
2013-04-10 23:42:00,35.7,32.2,29.97,WNW,292,1.0,0.0,87,0.00,,CLR,-99.99,VWS V14.01,2013-04-11 03:42:00,
2013-04-10 23:47:00,35.4,31.9,29.98,WNW,292,1.0,0.0,87,0.00,,CLR,-99.99,VWS V14.01,2013-04-11 03:47:00,
2013-04-10 23:52:00,35.4,31.9,29.97,South,180,92.5,97.6,87,0.00,,CLR,-99.99,VWS V14.01,2013-04-11 03:52:00,
2013-04-10 23:57:00,35.4,31.9,29.97,West,270,1.0,0.0,87,0.00,,CLR,-99.99,VWS V14.01,2013-04-11 03:57:00,